Volver al catálogo

YIJIAN

ActivoCienciaSSO
NORAD 41899·PAYLOAD·🇨🇳 China

Lanzado Dec 21, 2016 desde Jiuquan Satellite Launch Center

Loading…

Próximos Pases (próximas 24 horas)

TLE

ActualizadoSource: Space-Track

Época: Sep 14, 2026, 10:44 UTC

1 41899U 16081B   26257.44748789  .00000420  00000-0  95979-4 0  9999
2 41899  98.5439 258.1423 0021622  35.7306 324.5336 14.60851642517627

Sigue YIJIAN en tiempo real con AllMySat

Download on the App Store